Regional Weather Roundup
Issued by NWS

Home | Current Version | Previous Version | Text Only | Print | Product List | Glossary Off
Versions: 1 2 3 4 5 6 7 8 9 10 11 12 13 14 15 16 17 18 19 20 21 22 23 24 25 26 27 28 29 30 31 32 33 34 35 36 37 38 39 40 41 42 43 44 45 46 47 48 49 50

000
ASUS43 KIND 210159
RWRIN

WEATHER ROUNDUP FOR INDIANA
NATIONAL WEATHER SERVICE INDIANAPOLIS IN
1000 PM EDT MON APR 20 2015

NOTE: "FAIR" INDICATES FEW OR NO CLOUDS BELOW 12,000 FEET WITH NO
SIGNIFICANT WEATHER AND/OR OBSTRUCTIONS TO VISIBILITY.

* - STATION DOES NOT REPORT WEATHER SUCH AS PRECIPITATION OR FOG.

+ - STATION NOT QUALITY CONTROLLED BY THE NATIONAL WEATHER SERVICE.
    USE DATA WITH CAUTION...ESPECIALLY DEWPOINT AND RELATIVE
    HUMIDITY OBSERVATIONS.

INZ001>003-010>013-019-020-210300-
NORTHWEST INDIANA

CITY           SKY/WX    TMP DP  RH WIND       PRES   REMARKS
GARY /AIRPORT/ PTCLDY    46  25  42 W14       29.64R
RENSSELAER +   CLOUDY    45  37  76 W15       29.68R

$$

LMZ046-743>745-210300-
SOUTHERN LAKE MICHIGAN

STATION/POSITION TIME  TEMP    WIND        PRES    WAVE
                       AIR SEA DIR/SP/G            HT
                 (UTC) (F)     (DEG/KT/KT) (MB)    (FT)
BURNS HARBOR     0100   47     260/ 23/ 32 1003.4R
MICHIGAN CITY    0100   45     240/ 23/ 26   N/A
5NW MICH CITY    0100   45 45  270/ 16/ 21   N/A     5

$$

INZ004-005-014>016-021>024-210300-
NORTH CENTRAL INDIANA

CITY           SKY/WX    TMP DP  RH WIND       PRES   REMARKS
GOSHEN         CLOUDY    46  32  58 W22G30    29.62R
SOUTH BEND     MOCLDY    46  30  53 W15       29.63R

$$

INZ006>009-017-018-025>027-210300-
NORTHEAST INDIANA

CITY           SKY/WX    TMP DP  RH WIND       PRES   REMARKS
ANGOLA *+      CLOUDY    46  36  66 W18       29.60R
FORT WAYNE     MOCLDY    46  34  62 W20G29    29.66R

$$

INZ028-029-035-036-043>045-051>053-210300-
WEST CENTRAL INDIANA

CITY           SKY/WX    TMP DP  RH WIND       PRES   REMARKS
CRAWFORDSVL +  MOCLDY    44  30  57 W13       29.74R
GREENCASTLE +  MOCLDY    45  32  61 W9        29.76R
LAFAYETTE      CLEAR     44  34  67 W9G21     29.71R
TERRE HAUTE    CLOUDY    48  37  65 W10       29.77R

$$

INZ030>032-037>040-046>048-054>057-064-065-210300-
CENTRAL INDIANA

CITY           SKY/WX    TMP DP  RH WIND       PRES   REMARKS
INDIANAPOLIS   CLOUDY    48  35  60 W14       29.73R
-EAGLE CREEK   CLOUDY    48  35  60 W9G17     29.73R
KOKOMO *+      MOCLDY    46  36  66 W13       29.70R
MT COMFORT *+  CLOUDY    46  30  53 W13       29.74R
SHELBYVILLE    CLOUDY    50  36  58 W15       29.74R

$$

INZ033-034-041-042-049-050-058-059-210300-
EAST CENTRAL INDIANA

CITY           SKY/WX    TMP DP  RH WIND       PRES   REMARKS
MUNCIE         CLOUDY    47  37  68 W15       29.70R

$$

INZ060-061-067>069-081>083-085>088-210300-
SOUTHWEST INDIANA

CITY           SKY/WX    TMP DP  RH WIND       PRES   REMARKS
EVANSVILLE     PTCLDY    53  35  50 W7        29.84R
HUNTINGBURG *+ MOCLDY    46  36  66 W7        29.83R

$$

INZ062-063-066-070>080-084-089>092-210300-
SOUTH CENTRAL AND SOUTHEAST INDIANA

CITY           SKY/WX    TMP DP  RH WIND       PRES   REMARKS
BLOOMINGTON    CLOUDY    49  35  58 W12G23    29.77R
MADISON *+     PTCLDY    50  34  53 W9        29.80R

$$




USA.gov is the U.S. government's official web portal to all federal, state and local government web resources and services.